COSMOS 2251 DEB, 40794

Orbit data source: Space-Track

COSMOS 2251 DEB, 40794 is space debris in LEO originally from a launch on Wed, 16 Jun 1993 UTC launched from the Plesetsk Missile And Space Complex (PKMTR). The debris from Iridium 33, an American commercial communications satellite, has been tracked extensively since its accidental collision with the defunct Russian satellite Cosmos 2251 in 2009. This event, occurring at high speed in low Earth orbit (LEO), generated thousands of pieces of space debris, significantly increasing the risk of further collisions. The Iridium 33 debris cloud has impacted space traffic management and orbital debris mitigation strategies, making it a subject of ongoing study in space situational awareness.

Loading next visibility...
Identifier
40794, 1993-036BVX
Orbit
LEO
Country
Flag of CISCIS
Related business
Manufacturer
Unknown
Mission
Spacecraft
Bus & Motor
Unknown
Mass
Unknown
Launch date (UTC)
1993-06-16 (33 years ago)
Launch vehicle
Unknown
Launch site
Plesetsk Missile And Space Complex (PKMTR)
Object type
Payload
Rocket body
Debris
Shape & HBR
Unknown shape, 0.1 m
Radar Cross Section
Small (<0.1 m²)

Expand to show TLE details & history
Last TLE update: 5 days ago

TLE from 5 days ago
0 COSMOS 2251 DEB
1 40794U 93036BVX 25347.65117062  .00049759  00000-0  47307-2 0  9991
2 40794  73.9763 122.3990 0010785 261.0962 116.1040 14.93159868619388
Epoch: 2025-12-13T15:37Z
TLE epoch observation values (Epoch: 2025-12-13T15:37:41.141Z)
Latitude
16.60893°
Longitude
170.28961°
Altitude
593.433 km
Speed
7.563 km/s
True Right ascension
08h 29m 08s
True Declination
16° 30' 46"
Sunlit
Object was in full shadow at epoch
Visualization orbit readout
Latitude
Unknown
Longitude
Unknown
Altitude
Unknown
Speed
Unknown
Apparent Right ascension
Unknown
Apparent Declination
Unknown
Sunlit
N/A
Visualization observer readout
Local Sidereal Time
19:43:23
Azimuth
Unknown
Elevation
Unknown
Doppler factor
Unknown
Orbital elements
Apogee altitude
593.167 km
Perigee altitude
578.146 km
Semi-major axis
6,963.794 km
Eccentricity
0.00108
Inclination
73.9763°
RAAN
122.399°
Arg. of periapsis
261.0962°
True anomaly
116.21491°
Mean anomaly
116.104°
Eccentric anomaly
116.15946°
Mean motion
3.73486 °/min
Orbital period
96.39 mins
BSTAR
0.0047307
Loading maneuver chart data...
Computing Atmospheric mass density...

Documentation

Showing up to 5 results
|